Погода в Памплоне

Испания     42°48′35″N   1°39′20″W
темп.,
°C
ветер,
м/с
пор.,
м/с
влажн.,
%
обл.,
%
осадки,
мм/ч
давл.,
гПа
погр.,
м
17 апреля, сб
сб1723:00+3ссз511744 0.0 1023462
02:00+1с338416 0.0 102446
05:00−1ссз33855 0.0 102335
08:00−1ссз34880 0.0 102474
11:00+6с8115275 0.0 10221436
14:00+9с9114976 0.0 10211611
17:00+8с9115361 0.0 10201562
20:00+5ссз6117379 0.1 10221248
18 апреля, вс
вс1823:00+5с4108099 0.0 10231189
02:00+3ссз359314 0.1 1024136
05:00+3ссз378532 0.0 1023214
08:00+2ссз34915 0.0 102380
11:00+9с68565 0.0 10221112
14:00+13с67461 0.0 10201279
17:00+14с56452 0.0 10191319
20:00+10ссв46645 0.0 1019211
19 апреля, пн
пн1923:00+5с3388100 0.0 102238
02:00+3с329198 0.0 102126
05:00+3с2289100 0.0 102016
08:00+3с2281100 0.0 101916
11:00+11ссв225099 0.0 1017464
14:00+16с3431100 0.0 10151504
17:00+15с5535100 0.0 10131376
20:00+11с4755100 0.0 1015237
20 апреля, вт
вт2023:00+8ссз3471100 0.0 1017118
02:00+5с218888 0.0 101517
05:00+6с1186100 0.0 101426
08:00+6с2291100 0.0 101342
11:00+11с237277 0.0 1013673
14:00+13с5561100 0.4 10111359
17:00+9с467799 0.1 1013804
20:00+9с477760 0.1 1014830
21 апреля, ср
ср2123:00+5ссз339581 0.0 101761
02:00+4с349738 0.0 101795
05:00+4ссз22945 0.0 101723
08:00+3с23955 0.0 101861
11:00+11с366631 0.0 10171127
14:00+14с565295 0.1 10161713
17:00+14с665116 0.0 10151644
20:00+11с58718 0.0 1017647